Location: Bessat
(45.8735°N, 1.9924°E)
Time: 13:58:28
(UTC+00:00)

BREEZE M DEB (TANK) - Pass Details

Date: 11 May 2021
Orbit: 273 x 14490 km, 49.6° (Epoch: 19 June)

Event Time Altitude Azimuth Distance (km) Brightness Sun altitude
Rises 19:38:05 0° 271° (W) 6,648 9.0 -4.7°
Reaches altitude 10° 19:44:25 10° 276° (W) 3,931 7.8 -5.6°
Maximum altitude 19:51:55 52° 353° (N) 773 3.4 -6.7°
Drops below altitude 10° 19:54:37 10° 72° (ENE) 1,444 4.1 -7.1°
Enters shadow 19:55:37 - 78° (ENE) 1,914 4.7 -7.2°
